STARLINK-4354 (53223 NORAD) Tracking and Keplerian Element Data

This shows tracking and keplerian element data for the satellite.

Feedback or suggestion? Click here.




ElementValue
Catalog53223
NameSTARLINK-4354
Epoch Orbit1034
Epoch Day270.13268231
Epoch Year2022
RAAN329.9603
Inclination97.6531
Eccentricity0.0001346
Argument of Perigee110.7289
Mean Anonmoly249.408
Mean Motion15.01266284
Decay Rate-2.61E-06
L11 53223U 22084AL 22270.13268231 -.00000261 00000+0 -15739-4 0 9999
L22 53223 97.6531 329.9603 0001346 110.7289 249.4080 15.01266284 10342

Live tracking and technical data element details for STARLINK-4354 (NORAD 53223). STARLINK-4354 can be tracked NOW for your location showing map with azimuth and elevation plus other details from your city location.

Track the satellite on the map from your city or location and see movement details for azimuth, elevation, latitude, longitude, range, height, and movement on the map or in text.







IsCatalogInMostPopularTable: catalog: 53223, numindb: 7
Update: records affected: 1



GetName: 53223 STARLINK-4354

Hit Count: updated at: Fri, 30 Sep 2022 02:42:22 GMT